Tracking 19575 objects as of 18-Feb-2019
HD Live streaming from Space Station
objects crossing your sky now

USA 99

Track USA 99 now!
USA 99 is classified as:


NORAD ID: 22988
Int'l Code: 1994-009A
Perigee: 35,786.8 km
Apogee: 35,802.7 km
Inclination: 13.3 °
Period: 1,436.1 minutes
Semi major axis: 42165 km
RCS: Unknown
Launch date: February 7, 1994
Source: United States (US)
Launch site: AIR FORCE EASTERN TEST RANGE (AFETR)

Voice communication, data, imagery and video; survivable global military communication system. "World's most secure, nuclear survivable, space-based communication system."
aabbcc
Your satellite tracking list
Your tracking list is empty




NASA's NSSDC Master Catalog

Two Line Element Set (TLE):
1 22988U 94009A   19048.84451789 -.00000278 +00000-0 +00000-0 0  9997
2 22988 013.3212 056.7742 0001887 296.8809 059.0283 01.00268198006121
Source of the keplerian elements: McCants